Regional Weather Roundup
Issued by NWS Northern Indiana

Home | Current Version | Previous Version | Text Only | Print | Product List | Glossary Off
Versions: 1 2 3 4 5 6 7 8 9 10 11 12 13 14 15 16 17 18 19 20 21 22 23 24 25 26 27 28 29 30 31 32 33 34 35 36 37 38 39 40 41 42 43 44 45 46 47 48 49 50

000
ASUS43 KIWX 271600
RWRIWX

KIWX WEATHER ROUNDUP
NATIONAL WEATHER SERVICE NORTHERN INDIANA
1200 PM EDT THU AUG 27 2015

NOTE: "FAIR" INDICATES FEW OR NO CLOUDS BELOW 12,000 FEET WITH NO
SIGNIFICANT WEATHER AND/OR OBSTRUCTIONS TO VISIBILITY.

* THESE STATIONS ARE NOT UNDER NWS QUALITY CONTROL. THEY ALSO MAY NOT
  REPORT WEATHER SUCH AS PRECIPITATION OR FOG.

INZ001>027-271700-
NORTHERN INDIANA

CITY           SKY/WX    TMP DP  RH WIND       PRES   REMARKS
GARY*          CLOUDY    66  52  59 CALM      30.20F
SOUTH BEND     PTSUNNY   64  51  62 E5        30.21F
ELKHART*       CLOUDY    64  52  63 CALM      30.22F
GOSHEN         PTSUNNY   66  53  63 E3        30.21F
ANGOLA*        CLOUDY    64  54  68 CALM      30.23F
FORT WAYNE     PTSUNNY   69  56  62 CALM      30.22F

$$
INZ028>050-271700-
CENTRAL INDIANA

CITY           SKY/WX    TMP DP  RH WIND       PRES   REMARKS
LAFAYETTE      SUNNY     69  56  62 E8        30.18F
KOKOMO*        MOSUNNY   66  55  68 E5        30.21F
MUNCIE*        MOSUNNY   68  58  70 CALM      30.21F
INDIANAPOLIS   MOSUNNY   74  58  57 VRB3      30.17F

$$
MIZ043>046-050>051-056>058-064>065-071>073-077>080-271700-
SOUTHWEST LOWER MICHIGAN

CITY           SKY/WX    TMP DP  RH WIND       PRES   REMARKS
BATTLE CREEK   CLOUDY    62  53  72 E5        30.23F
BENTON HARBOR  MOSUNNY   66  56  70 NE9       30.20F
COLDWATER*     CLOUDY    63  57  80 N5        30.22F
HILLSDALE*     CLOUDY    64  56  76 NW5       30.23F
HOLLAND        SUNNY     68  54  60 VRB6      30.20F
GRAND RAPIDS   MOSUNNY   66  54  65 SE7       30.20F
KALAMAZOO      MOSUNNY   63  54  72 E8        30.23F
STURGIS*       CLOUDY    63  57  82 CALM      30.22F
THREE RIVERS*  CLOUDY    64  56  78 NE5       30.23F

$$
OHZ001>008-015>018-024>025-271700-
NORTHWEST OHIO

CITY           SKY/WX    TMP DP  RH WIND       PRES   REMARKS
DEFIANCE       PTSUNNY   68  54  60 NW7       30.23
FINDLAY        CLOUDY    68  56  65 NW8       30.21R
TOLEDO EXPRESS MOSUNNY   68  54  60 VRB5      30.22S
TOLEDO METCALF MOSUNNY   69  53  56 N6        30.22F
LIMA           MOSUNNY   69  56  62 NW8       30.22R

$$
AND FOR LAKE MICHIGAN COASTAL AND OPEN LAKE BUOY OBSERVATIONS

STATION/POSITION TEMP    WIND        PRES    VSBY  WAVE
                 AIR SEA DIR/SP/G                  HT/PER
                 (F)     (DEG/KT/KT) (MB)    (MI)  (FT/S)
CALUMET HARBOR    64      70/  2/  3   N/A
MICHIGAN CITY     62     110/  7/  9   N/A
BURNS HARBOR      64     180/  6/  8 1023.4F
SAINT JOSEPH      64     230/  1/  4 1023.7F
SOUTH LAKE BUOY   64 67  140/  8/ 10 1022.6R
4 MI NW BRIDGMAN  63 70  170/  6/  8   N/A           1
MICHIGAN CITY     64 70  170/  8/ 10   N/A           1/ 2

$$
&&


USA.gov is the U.S. government's official web portal to all federal, state and local government web resources and services.